Regional Weather Roundup
Issued by NWS Nashville, TN

Current Version | Previous Version | Text Only | Print | Product List | Glossary On
Versions: 1 2 3 4 5 6 7 8 9 10 11 12 13 14 15 16 17 18 19 20 21 22 23 24 25 26 27 28 29 30 31 32 33 34 35 36 37 38 39 40 41 42 43 44 45 46 47 48 49 50
000
ASUS44 KOHX 261015
RWROHX
MIDDLE TENNESSEE HOURLY WEATHER ROUNDUP
NATIONAL WEATHER SERVICE NASHVILLE TN
400 AM CST MON JAN 26 2015

NOTE: "FAIR" INDICATES FEW OR NO CLOUDS BELOW 12,000 FEET WITH
NO SIGNIFICANT WEATHER AND/OR OBSTRUCTIONS TO VISIBILITY.

* THESE REPORTS ARE NOT UNDER NWS QUALITY CONTROL AND MAY NOT
  REPORT WEATHER SUCH AS PRECIPITATION AND FOG.


TNZ005>011-023>034-057-059-062>066-078-080-261100
...NORTHERN MIDDLE TENNESSEE...

CITY           SKY/WX    TMP DP  RH WIND       PRES   REMARKS
CLARKSVILLE    CLOUDY    33  29  85 NW17      29.91S WCI  22
CROSSVILLE     CLOUDY    37  34  89 W9        29.71R FOG     WCI  30
GALLATIN       CLOUDY    34  33  96 NW15      29.83R WCI  24
DICKSON        PTCLDY    32  30  93 NW22      29.89R WCI  19
LEBANON        CLOUDY    35  33  92 NW16      29.81R WCI  25
LIVINGSTON     CLOUDY    38  37  96 NW8       29.73R WCI  32
NASHVILLE      CLOUDY    35  32  88 NW15G26   29.87R WCI  25
WEST NASHVILLE CLOUDY    32  32 100 NW20      29.88R WCI  20
PORTLAND       CLOUDY    30  28  93 NW18      29.83R WCI  18
SMYRNA         CLOUDY    36  34  93 N20G28    29.88R WCI  25
SPARTA         CLOUDY    39  37  93 NW8       29.74R WCI  34
$$
TNZ056-058-060-061-075>077-079-093>097-261100
...SOUTHERN MIDDLE TENNESSEE...

CITY           SKY/WX    TMP DP  RH WIND       PRES   REMARKS
COLUMBIA       CLOUDY   N/A N/A N/A NW14      29.86R
LEWISBURG      CLOUDY    39  37  92 NW9       29.84R WCI  33
MCMINNVILLE    CLOUDY    39  39 100 NW10      29.77R WCI  32
MURFREESBORO   CLOUDY    38  34  85 NW16      29.83  WCI  29
SHELBYVILLE    CLOUDY    39  37  93 NW18      29.83R WCI  30
TULLAHOMA      CLOUDY    37  36  93 NW17      29.80R WCI  28
WINCHESTER     CLOUDY    39  37  93 NW8       29.79R WCI  34
$$


...KEY TO REMARKS...
VSB - VISIBILITY IN MILES
WCI - WIND CHILL INDEX
HX  - HEAT INDEX



USA.gov is the U.S. government's official web portal to all federal, state and local government web resources and services.